Index of /20260503/WXO-DD/model_rdps/10km/00/028
Name Last modified Size Description
Parent Directory -
20260503T00Z_MSC_RDPS_AbsoluteVorticity_IsbL-0250_RLatLon0.09_PT028H.grib2 2026-05-03 02:48 624K
20260503T00Z_MSC_RDPS_AbsoluteVorticity_IsbL-0500_RLatLon0.09_PT028H.grib2 2026-05-03 02:48 573K
20260503T00Z_MSC_RDPS_AbsoluteVorticity_IsbL-0700_RLatLon0.09_PT028H.grib2 2026-05-03 02:48 621K
20260503T00Z_MSC_RDPS_AbsoluteVorticity_IsbL-0850_RLatLon0.09_PT028H.grib2 2026-05-03 02:48 784K
20260503T00Z_MSC_RDPS_AirTemp_AGL-120m_RLatLon0.09_PT028H.grib2 2026-05-03 02:48 368K
20260503T00Z_MSC_RDPS_AirTemp_AGL-2m_RLatLon0.09_PT028H.grib2 2026-05-03 02:48 622K
20260503T00Z_MSC_RDPS_AirTemp_AGL-40m_RLatLon0.09_PT028H.grib2 2026-05-03 02:48 399K
20260503T00Z_MSC_RDPS_AirTemp_AGL-80m_RLatLon0.09_PT028H.grib2 2026-05-03 02:48 390K
20260503T00Z_MSC_RDPS_AirTemp_IsbL-0001_RLatLon0.09_PT028H.grib2 2026-05-03 02:48 299K
20260503T00Z_MSC_RDPS_AirTemp_IsbL-0005_RLatLon0.09_PT028H.grib2 2026-05-03 02:48 286K
20260503T00Z_MSC_RDPS_AirTemp_IsbL-0010_RLatLon0.09_PT028H.grib2 2026-05-03 02:48 296K
20260503T00Z_MSC_RDPS_AirTemp_IsbL-0020_RLatLon0.09_PT028H.grib2 2026-05-03 02:48 314K
20260503T00Z_MSC_RDPS_AirTemp_IsbL-0030_RLatLon0.09_PT028H.grib2 2026-05-03 02:48 337K
20260503T00Z_MSC_RDPS_AirTemp_IsbL-0050_RLatLon0.09_PT028H.grib2 2026-05-03 02:48 315K
20260503T00Z_MSC_RDPS_AirTemp_IsbL-0100_RLatLon0.09_PT028H.grib2 2026-05-03 02:48 428K
20260503T00Z_MSC_RDPS_AirTemp_IsbL-0150_RLatLon0.09_PT028H.grib2 2026-05-03 02:48 421K
20260503T00Z_MSC_RDPS_AirTemp_IsbL-0175_RLatLon0.09_PT028H.grib2 2026-05-03 02:48 410K
20260503T00Z_MSC_RDPS_AirTemp_IsbL-0200_RLatLon0.09_PT028H.grib2 2026-05-03 02:48 416K
20260503T00Z_MSC_RDPS_AirTemp_IsbL-0225_RLatLon0.09_PT028H.grib2 2026-05-03 02:48 422K
20260503T00Z_MSC_RDPS_AirTemp_IsbL-0250_RLatLon0.09_PT028H.grib2 2026-05-03 02:48 431K
20260503T00Z_MSC_RDPS_AirTemp_IsbL-0275_RLatLon0.09_PT028H.grib2 2026-05-03 02:48 408K
20260503T00Z_MSC_RDPS_AirTemp_IsbL-0300_RLatLon0.09_PT028H.grib2 2026-05-03 02:48 411K
20260503T00Z_MSC_RDPS_AirTemp_IsbL-0350_RLatLon0.09_PT028H.grib2 2026-05-03 02:48 426K
20260503T00Z_MSC_RDPS_AirTemp_IsbL-0400_RLatLon0.09_PT028H.grib2 2026-05-03 02:48 430K
20260503T00Z_MSC_RDPS_AirTemp_IsbL-0450_RLatLon0.09_PT028H.grib2 2026-05-03 02:48 440K
20260503T00Z_MSC_RDPS_AirTemp_IsbL-0500_RLatLon0.09_PT028H.grib2 2026-05-03 02:48 416K
20260503T00Z_MSC_RDPS_AirTemp_IsbL-0550_RLatLon0.09_PT028H.grib2 2026-05-03 02:48 432K
20260503T00Z_MSC_RDPS_AirTemp_IsbL-0600_RLatLon0.09_PT028H.grib2 2026-05-03 02:48 445K
20260503T00Z_MSC_RDPS_AirTemp_IsbL-0650_RLatLon0.09_PT028H.grib2 2026-05-03 02:48 459K
20260503T00Z_MSC_RDPS_AirTemp_IsbL-0700_RLatLon0.09_PT028H.grib2 2026-05-03 02:48 376K
20260503T00Z_MSC_RDPS_AirTemp_IsbL-0750_RLatLon0.09_PT028H.grib2 2026-05-03 02:48 407K
20260503T00Z_MSC_RDPS_AirTemp_IsbL-0800_RLatLon0.09_PT028H.grib2 2026-05-03 02:48 452K
20260503T00Z_MSC_RDPS_AirTemp_IsbL-0850_RLatLon0.09_PT028H.grib2 2026-05-03 02:48 500K
20260503T00Z_MSC_RDPS_AirTemp_IsbL-0875_RLatLon0.09_PT028H.grib2 2026-05-03 02:48 516K
20260503T00Z_MSC_RDPS_AirTemp_IsbL-0900_RLatLon0.09_PT028H.grib2 2026-05-03 02:48 522K
20260503T00Z_MSC_RDPS_AirTemp_IsbL-0925_RLatLon0.09_PT028H.grib2 2026-05-03 02:48 515K
20260503T00Z_MSC_RDPS_AirTemp_IsbL-0950_RLatLon0.09_PT028H.grib2 2026-05-03 02:48 515K
20260503T00Z_MSC_RDPS_AirTemp_IsbL-0970_RLatLon0.09_PT028H.grib2 2026-05-03 02:48 508K
20260503T00Z_MSC_RDPS_AirTemp_IsbL-0985_RLatLon0.09_PT028H.grib2 2026-05-03 02:48 497K
20260503T00Z_MSC_RDPS_AirTemp_IsbL-1000_RLatLon0.09_PT028H.grib2 2026-05-03 02:48 483K
20260503T00Z_MSC_RDPS_AirTemp_IsbL-1015_RLatLon0.09_PT028H.grib2 2026-05-03 02:48 482K
20260503T00Z_MSC_RDPS_Albedo_Sfc_RLatLon0.09_PT028H.grib2 2026-05-03 02:48 157K
20260503T00Z_MSC_RDPS_CAPE_Sfc_RLatLon0.09_PT028H.grib2 2026-05-03 02:48 1.6M
20260503T00Z_MSC_RDPS_CIN_Sfc_RLatLon0.09_PT028H.grib2 2026-05-03 02:48 1.1M
20260503T00Z_MSC_RDPS_CloudWater_EAtm_RLatLon0.09_PT028H.grib2 2026-05-03 02:48 221K
20260503T00Z_MSC_RDPS_ConvectivePrecip-Accum_Sfc_RLatLon0.09_PT028H.grib2 2026-05-03 02:48 883K
20260503T00Z_MSC_RDPS_DewPointDepression_AGL-2m_RLatLon0.09_PT028H.grib2 2026-05-03 02:48 400K
20260503T00Z_MSC_RDPS_DewPointDepression_IsbL-0001_RLatLon0.09_PT028H.grib2 2026-05-03 02:48 193
20260503T00Z_MSC_RDPS_DewPointDepression_IsbL-0005_RLatLon0.09_PT028H.grib2 2026-05-03 02:48 193
20260503T00Z_MSC_RDPS_DewPointDepression_IsbL-0010_RLatLon0.09_PT028H.grib2 2026-05-03 02:48 193
20260503T00Z_MSC_RDPS_DewPointDepression_IsbL-0020_RLatLon0.09_PT028H.grib2 2026-05-03 02:48 193
20260503T00Z_MSC_RDPS_DewPointDepression_IsbL-0030_RLatLon0.09_PT028H.grib2 2026-05-03 02:48 193
20260503T00Z_MSC_RDPS_DewPointDepression_IsbL-0050_RLatLon0.09_PT028H.grib2 2026-05-03 02:48 76K
20260503T00Z_MSC_RDPS_DewPointDepression_IsbL-0100_RLatLon0.09_PT028H.grib2 2026-05-03 02:48 120K
20260503T00Z_MSC_RDPS_DewPointDepression_IsbL-0150_RLatLon0.09_PT028H.grib2 2026-05-03 02:48 143K
20260503T00Z_MSC_RDPS_DewPointDepression_IsbL-0175_RLatLon0.09_PT028H.grib2 2026-05-03 02:48 180K
20260503T00Z_MSC_RDPS_DewPointDepression_IsbL-0200_RLatLon0.09_PT028H.grib2 2026-05-03 02:48 221K
20260503T00Z_MSC_RDPS_DewPointDepression_IsbL-0225_RLatLon0.09_PT028H.grib2 2026-05-03 02:48 266K
20260503T00Z_MSC_RDPS_DewPointDepression_IsbL-0250_RLatLon0.09_PT028H.grib2 2026-05-03 02:48 307K
20260503T00Z_MSC_RDPS_DewPointDepression_IsbL-0275_RLatLon0.09_PT028H.grib2 2026-05-03 02:48 313K
20260503T00Z_MSC_RDPS_DewPointDepression_IsbL-0300_RLatLon0.09_PT028H.grib2 2026-05-03 02:48 329K
20260503T00Z_MSC_RDPS_DewPointDepression_IsbL-0350_RLatLon0.09_PT028H.grib2 2026-05-03 02:48 337K
20260503T00Z_MSC_RDPS_DewPointDepression_IsbL-0400_RLatLon0.09_PT028H.grib2 2026-05-03 02:48 344K
20260503T00Z_MSC_RDPS_DewPointDepression_IsbL-0450_RLatLon0.09_PT028H.grib2 2026-05-03 02:48 346K
20260503T00Z_MSC_RDPS_DewPointDepression_IsbL-0500_RLatLon0.09_PT028H.grib2 2026-05-03 02:48 351K
20260503T00Z_MSC_RDPS_DewPointDepression_IsbL-0550_RLatLon0.09_PT028H.grib2 2026-05-03 02:48 360K
20260503T00Z_MSC_RDPS_DewPointDepression_IsbL-0600_RLatLon0.09_PT028H.grib2 2026-05-03 02:48 371K
20260503T00Z_MSC_RDPS_DewPointDepression_IsbL-0650_RLatLon0.09_PT028H.grib2 2026-05-03 02:48 376K
20260503T00Z_MSC_RDPS_DewPointDepression_IsbL-0700_RLatLon0.09_PT028H.grib2 2026-05-03 02:48 387K
20260503T00Z_MSC_RDPS_DewPointDepression_IsbL-0750_RLatLon0.09_PT028H.grib2 2026-05-03 02:48 406K
20260503T00Z_MSC_RDPS_DewPointDepression_IsbL-0800_RLatLon0.09_PT028H.grib2 2026-05-03 02:48 442K
20260503T00Z_MSC_RDPS_DewPointDepression_IsbL-0850_RLatLon0.09_PT028H.grib2 2026-05-03 02:48 471K
20260503T00Z_MSC_RDPS_DewPointDepression_IsbL-0875_RLatLon0.09_PT028H.grib2 2026-05-03 02:48 470K
20260503T00Z_MSC_RDPS_DewPointDepression_IsbL-0900_RLatLon0.09_PT028H.grib2 2026-05-03 02:48 459K
20260503T00Z_MSC_RDPS_DewPointDepression_IsbL-0925_RLatLon0.09_PT028H.grib2 2026-05-03 02:48 446K
20260503T00Z_MSC_RDPS_DewPointDepression_IsbL-0950_RLatLon0.09_PT028H.grib2 2026-05-03 02:48 439K
20260503T00Z_MSC_RDPS_DewPointDepression_IsbL-0970_RLatLon0.09_PT028H.grib2 2026-05-03 02:48 431K
20260503T00Z_MSC_RDPS_DewPointDepression_IsbL-0985_RLatLon0.09_PT028H.grib2 2026-05-03 02:48 425K
20260503T00Z_MSC_RDPS_DewPointDepression_IsbL-1000_RLatLon0.09_PT028H.grib2 2026-05-03 02:48 420K
20260503T00Z_MSC_RDPS_DewPointDepression_IsbL-1015_RLatLon0.09_PT028H.grib2 2026-05-03 02:48 413K
20260503T00Z_MSC_RDPS_DewPoint_AGL-2m_RLatLon0.09_PT028H.grib2 2026-05-03 02:48 303K
20260503T00Z_MSC_RDPS_DownwardLongwaveRadiationFlux-Accum_Sfc_RLatLon0.09_PT028H.grib2 2026-05-03 02:48 468K
20260503T00Z_MSC_RDPS_DownwardShortwaveRadiationFlux-Accum_NTAtm_RLatLon0.09_PT028H.grib2 2026-05-03 02:48 91K
20260503T00Z_MSC_RDPS_DownwardShortwaveRadiationFlux-Accum_Sfc_RLatLon0.09_PT028H.grib2 2026-05-03 02:48 653K
20260503T00Z_MSC_RDPS_FreezingRain-Accum1h_Sfc_RLatLon0.09_PT028H.grib2 2026-05-03 02:48 30K
20260503T00Z_MSC_RDPS_FreezingRain-Accum_Sfc_RLatLon0.09_PT028H.grib2 2026-05-03 02:48 119K
20260503T00Z_MSC_RDPS_GeopotentialHeight_IsbL-0001_RLatLon0.09_PT028H.grib2 2026-05-03 02:48 236K
20260503T00Z_MSC_RDPS_GeopotentialHeight_IsbL-0005_RLatLon0.09_PT028H.grib2 2026-05-03 02:48 333K
20260503T00Z_MSC_RDPS_GeopotentialHeight_IsbL-0010_RLatLon0.09_PT028H.grib2 2026-05-03 02:48 301K
20260503T00Z_MSC_RDPS_GeopotentialHeight_IsbL-0020_RLatLon0.09_PT028H.grib2 2026-05-03 02:48 397K
20260503T00Z_MSC_RDPS_GeopotentialHeight_IsbL-0030_RLatLon0.09_PT028H.grib2 2026-05-03 02:48 399K
20260503T00Z_MSC_RDPS_GeopotentialHeight_IsbL-0050_RLatLon0.09_PT028H.grib2 2026-05-03 02:48 307K
20260503T00Z_MSC_RDPS_GeopotentialHeight_IsbL-0100_RLatLon0.09_PT028H.grib2 2026-05-03 02:48 287K
20260503T00Z_MSC_RDPS_GeopotentialHeight_IsbL-0150_RLatLon0.09_PT028H.grib2 2026-05-03 02:48 229K
20260503T00Z_MSC_RDPS_GeopotentialHeight_IsbL-0175_RLatLon0.09_PT028H.grib2 2026-05-03 02:48 232K
20260503T00Z_MSC_RDPS_GeopotentialHeight_IsbL-0200_RLatLon0.09_PT028H.grib2 2026-05-03 02:48 264K
20260503T00Z_MSC_RDPS_GeopotentialHeight_IsbL-0225_RLatLon0.09_PT028H.grib2 2026-05-03 02:48 266K
20260503T00Z_MSC_RDPS_GeopotentialHeight_IsbL-0250_RLatLon0.09_PT028H.grib2 2026-05-03 02:48 267K
20260503T00Z_MSC_RDPS_GeopotentialHeight_IsbL-0275_RLatLon0.09_PT028H.grib2 2026-05-03 02:48 266K
20260503T00Z_MSC_RDPS_GeopotentialHeight_IsbL-0300_RLatLon0.09_PT028H.grib2 2026-05-03 02:48 236K
20260503T00Z_MSC_RDPS_GeopotentialHeight_IsbL-0350_RLatLon0.09_PT028H.grib2 2026-05-03 02:48 232K
20260503T00Z_MSC_RDPS_GeopotentialHeight_IsbL-0400_RLatLon0.09_PT028H.grib2 2026-05-03 02:48 227K
20260503T00Z_MSC_RDPS_GeopotentialHeight_IsbL-0450_RLatLon0.09_PT028H.grib2 2026-05-03 02:48 298K
20260503T00Z_MSC_RDPS_GeopotentialHeight_IsbL-0500_RLatLon0.09_PT028H.grib2 2026-05-03 02:48 294K
20260503T00Z_MSC_RDPS_GeopotentialHeight_IsbL-0550_RLatLon0.09_PT028H.grib2 2026-05-03 02:48 290K
20260503T00Z_MSC_RDPS_GeopotentialHeight_IsbL-0600_RLatLon0.09_PT028H.grib2 2026-05-03 02:48 285K
20260503T00Z_MSC_RDPS_GeopotentialHeight_IsbL-0650_RLatLon0.09_PT028H.grib2 2026-05-03 02:48 256K
20260503T00Z_MSC_RDPS_GeopotentialHeight_IsbL-0700_RLatLon0.09_PT028H.grib2 2026-05-03 02:48 255K
20260503T00Z_MSC_RDPS_GeopotentialHeight_IsbL-0750_RLatLon0.09_PT028H.grib2 2026-05-03 02:48 258K
20260503T00Z_MSC_RDPS_GeopotentialHeight_IsbL-0800_RLatLon0.09_PT028H.grib2 2026-05-03 02:48 348K
20260503T00Z_MSC_RDPS_GeopotentialHeight_IsbL-0850_RLatLon0.09_PT028H.grib2 2026-05-03 02:48 356K
20260503T00Z_MSC_RDPS_GeopotentialHeight_IsbL-0875_RLatLon0.09_PT028H.grib2 2026-05-03 02:48 358K
20260503T00Z_MSC_RDPS_GeopotentialHeight_IsbL-0900_RLatLon0.09_PT028H.grib2 2026-05-03 02:48 361K
20260503T00Z_MSC_RDPS_GeopotentialHeight_IsbL-0925_RLatLon0.09_PT028H.grib2 2026-05-03 02:48 364K
20260503T00Z_MSC_RDPS_GeopotentialHeight_IsbL-0950_RLatLon0.09_PT028H.grib2 2026-05-03 02:48 366K
20260503T00Z_MSC_RDPS_GeopotentialHeight_IsbL-0970_RLatLon0.09_PT028H.grib2 2026-05-03 02:48 371K
20260503T00Z_MSC_RDPS_GeopotentialHeight_IsbL-0985_RLatLon0.09_PT028H.grib2 2026-05-03 02:48 290K
20260503T00Z_MSC_RDPS_GeopotentialHeight_IsbL-1000_RLatLon0.09_PT028H.grib2 2026-05-03 02:48 298K
20260503T00Z_MSC_RDPS_GeopotentialHeight_IsbL-1015_RLatLon0.09_PT028H.grib2 2026-05-03 02:48 309K
20260503T00Z_MSC_RDPS_Humidex_Sfc_RLatLon0.09_PT028H.grib2 2026-05-03 02:48 2.2M
20260503T00Z_MSC_RDPS_IcePellets-Accum1h_Sfc_RLatLon0.09_PT028H.grib2 2026-05-03 02:48 1.0K
20260503T00Z_MSC_RDPS_IcePellets-Accum_Sfc_RLatLon0.09_PT028H.grib2 2026-05-03 02:48 9.7K
20260503T00Z_MSC_RDPS_KIndex_Sfc_RLatLon0.09_PT028H.grib2 2026-05-03 02:48 2.5M
20260503T00Z_MSC_RDPS_LatentHeatNetFlux_Sfc_RLatLon0.09_PT028H.grib2 2026-05-03 02:48 410K
20260503T00Z_MSC_RDPS_LiftedIndex-MU-VT_IsbL-0500_RLatLon0.09_PT028H.grib2 2026-05-03 02:48 2.4M
20260503T00Z_MSC_RDPS_NetLongwaveRadiationFlux-Accum_Sfc_RLatLon0.09_PT028H.grib2 2026-05-03 02:48 608K
20260503T00Z_MSC_RDPS_NetShortwaveRadiationFlux-Accum_Sfc_RLatLon0.09_PT028H.grib2 2026-05-03 02:48 652K
20260503T00Z_MSC_RDPS_PlanetaryBoundaryLayerHeight_Sfc_RLatLon0.09_PT028H.grib2 2026-05-03 02:48 1.1M
20260503T00Z_MSC_RDPS_Precip-Accum1h_Sfc_RLatLon0.09_PT028H.grib2 2026-05-03 02:48 1.2M
20260503T00Z_MSC_RDPS_Precip-Accum_Sfc_RLatLon0.09_PT028H.grib2 2026-05-03 02:48 1.9M
20260503T00Z_MSC_RDPS_PrecipRate_Sfc_RLatLon0.09_PT028H.grib2 2026-05-03 02:48 182K
20260503T00Z_MSC_RDPS_PrecipType-Instant_Sfc_RLatLon0.09_PT028H.grib2 2026-05-03 02:48 571K
20260503T00Z_MSC_RDPS_Pressure-Trend3h_Sfc_RLatLon0.09_PT028H.grib2 2026-05-03 02:48 1.2M
20260503T00Z_MSC_RDPS_Pressure_MSL_RLatLon0.09_PT028H.grib2 2026-05-03 02:48 324K
20260503T00Z_MSC_RDPS_Pressure_PVU-1.5_RLatLon0.09_PT028H.grib2 2026-05-03 02:48 2.5M
20260503T00Z_MSC_RDPS_Pressure_PVU-1_RLatLon0.09_PT028H.grib2 2026-05-03 02:48 2.4M
20260503T00Z_MSC_RDPS_Pressure_PVU-2_RLatLon0.09_PT028H.grib2 2026-05-03 02:48 2.4M
20260503T00Z_MSC_RDPS_Pressure_Sfc_RLatLon0.09_PT028H.grib2 2026-05-03 02:48 497K
20260503T00Z_MSC_RDPS_RadiativeTemp_Sfc_RLatLon0.09_PT028H.grib2 2026-05-03 02:48 301K
20260503T00Z_MSC_RDPS_Rain-Accum1h_Sfc_RLatLon0.09_PT028H.grib2 2026-05-03 02:48 600K
20260503T00Z_MSC_RDPS_Rain-Accum_Sfc_RLatLon0.09_PT028H.grib2 2026-05-03 02:48 1.5M
20260503T00Z_MSC_RDPS_RelativeHumidity_AGL-2m_RLatLon0.09_PT028H.grib2 2026-05-03 02:48 1.0M
20260503T00Z_MSC_RDPS_RelativeHumidity_IsbL-0010_RLatLon0.09_PT028H.grib2 2026-05-03 02:48 618K
20260503T00Z_MSC_RDPS_RelativeHumidity_IsbL-0020_RLatLon0.09_PT028H.grib2 2026-05-03 02:48 670K
20260503T00Z_MSC_RDPS_RelativeHumidity_IsbL-0030_RLatLon0.09_PT028H.grib2 2026-05-03 02:48 604K
20260503T00Z_MSC_RDPS_RelativeHumidity_IsbL-0050_RLatLon0.09_PT028H.grib2 2026-05-03 02:48 307K
20260503T00Z_MSC_RDPS_RelativeHumidity_IsbL-0100_RLatLon0.09_PT028H.grib2 2026-05-03 02:48 280K
20260503T00Z_MSC_RDPS_RelativeHumidity_IsbL-0150_RLatLon0.09_PT028H.grib2 2026-05-03 02:48 415K
20260503T00Z_MSC_RDPS_RelativeHumidity_IsbL-0175_RLatLon0.09_PT028H.grib2 2026-05-03 02:48 477K
20260503T00Z_MSC_RDPS_RelativeHumidity_IsbL-0200_RLatLon0.09_PT028H.grib2 2026-05-03 02:48 554K
20260503T00Z_MSC_RDPS_RelativeHumidity_IsbL-0225_RLatLon0.09_PT028H.grib2 2026-05-03 02:48 627K
20260503T00Z_MSC_RDPS_RelativeHumidity_IsbL-0250_RLatLon0.09_PT028H.grib2 2026-05-03 02:48 699K
20260503T00Z_MSC_RDPS_RelativeHumidity_IsbL-0275_RLatLon0.09_PT028H.grib2 2026-05-03 02:48 722K
20260503T00Z_MSC_RDPS_RelativeHumidity_IsbL-0300_RLatLon0.09_PT028H.grib2 2026-05-03 02:48 756K
20260503T00Z_MSC_RDPS_RelativeHumidity_IsbL-0350_RLatLon0.09_PT028H.grib2 2026-05-03 02:48 781K
20260503T00Z_MSC_RDPS_RelativeHumidity_IsbL-0400_RLatLon0.09_PT028H.grib2 2026-05-03 02:48 794K
20260503T00Z_MSC_RDPS_RelativeHumidity_IsbL-0450_RLatLon0.09_PT028H.grib2 2026-05-03 02:48 795K
20260503T00Z_MSC_RDPS_RelativeHumidity_IsbL-0500_RLatLon0.09_PT028H.grib2 2026-05-03 02:48 801K
20260503T00Z_MSC_RDPS_RelativeHumidity_IsbL-0550_RLatLon0.09_PT028H.grib2 2026-05-03 02:48 818K
20260503T00Z_MSC_RDPS_RelativeHumidity_IsbL-0600_RLatLon0.09_PT028H.grib2 2026-05-03 02:48 837K
20260503T00Z_MSC_RDPS_RelativeHumidity_IsbL-0650_RLatLon0.09_PT028H.grib2 2026-05-03 02:48 856K
20260503T00Z_MSC_RDPS_RelativeHumidity_IsbL-0700_RLatLon0.09_PT028H.grib2 2026-05-03 02:48 867K
20260503T00Z_MSC_RDPS_RelativeHumidity_IsbL-0750_RLatLon0.09_PT028H.grib2 2026-05-03 02:48 917K
20260503T00Z_MSC_RDPS_RelativeHumidity_IsbL-0800_RLatLon0.09_PT028H.grib2 2026-05-03 02:48 1.0M
20260503T00Z_MSC_RDPS_RelativeHumidity_IsbL-0850_RLatLon0.09_PT028H.grib2 2026-05-03 02:48 1.0M
20260503T00Z_MSC_RDPS_RelativeHumidity_IsbL-0875_RLatLon0.09_PT028H.grib2 2026-05-03 02:48 1.0M
20260503T00Z_MSC_RDPS_RelativeHumidity_IsbL-0900_RLatLon0.09_PT028H.grib2 2026-05-03 02:48 1.1M
20260503T00Z_MSC_RDPS_RelativeHumidity_IsbL-0925_RLatLon0.09_PT028H.grib2 2026-05-03 02:48 1.0M
20260503T00Z_MSC_RDPS_RelativeHumidity_IsbL-0950_RLatLon0.09_PT028H.grib2 2026-05-03 02:48 1.0M
20260503T00Z_MSC_RDPS_RelativeHumidity_IsbL-0970_RLatLon0.09_PT028H.grib2 2026-05-03 02:48 1.0M
20260503T00Z_MSC_RDPS_RelativeHumidity_IsbL-0985_RLatLon0.09_PT028H.grib2 2026-05-03 02:48 1.0M
20260503T00Z_MSC_RDPS_RelativeHumidity_IsbL-1000_RLatLon0.09_PT028H.grib2 2026-05-03 02:48 1.0M
20260503T00Z_MSC_RDPS_RelativeHumidity_IsbL-1015_RLatLon0.09_PT028H.grib2 2026-05-03 02:48 1.0M
20260503T00Z_MSC_RDPS_Runoff-Accum_Sfc_RLatLon0.09_PT028H.grib2 2026-05-03 02:48 56K
20260503T00Z_MSC_RDPS_SWEATIndex_Sfc_RLatLon0.09_PT028H.grib2 2026-05-03 02:48 2.4M
20260503T00Z_MSC_RDPS_SeeingIndex_EAtm_RLatLon0.09_PT028H.grib2 2026-05-03 02:48 1.0M
20260503T00Z_MSC_RDPS_SensibleHeatNetFlux_Sfc_RLatLon0.09_PT028H.grib2 2026-05-03 02:48 289K
20260503T00Z_MSC_RDPS_ShowalterIndex_IsbL-0500_RLatLon0.09_PT028H.grib2 2026-05-03 02:48 2.6M
20260503T00Z_MSC_RDPS_SkyTransparencyIndex_EAtm_RLatLon0.09_PT028H.grib2 2026-05-03 02:48 715K
20260503T00Z_MSC_RDPS_Snow-Accum1h_Sfc_RLatLon0.09_PT028H.grib2 2026-05-03 02:48 513K
20260503T00Z_MSC_RDPS_Snow-Accum_Sfc_RLatLon0.09_PT028H.grib2 2026-05-03 02:48 741K
20260503T00Z_MSC_RDPS_SnowDensity_Sfc_RLatLon0.09_PT028H.grib2 2026-05-03 02:48 167K
20260503T00Z_MSC_RDPS_SnowDepth_Sfc_RLatLon0.09_PT028H.grib2 2026-05-03 02:48 646K
20260503T00Z_MSC_RDPS_SoilTemp_DBS-0to10cm_RLatLon0.09_PT028H.grib2 2026-05-03 02:48 232K
20260503T00Z_MSC_RDPS_SoilTemp_Sfc_RLatLon0.09_PT028H.grib2 2026-05-03 02:48 261K
20260503T00Z_MSC_RDPS_SoilVolumetricIceContent_Sfc_RLatLon0.09_PT028H.grib2 2026-05-03 02:48 156K
20260503T00Z_MSC_RDPS_SoilVolumetricWaterContent_DBS-0to10cm_RLatLon0.09_PT028H.grib2 2026-05-03 02:48 274K
20260503T00Z_MSC_RDPS_SoilVolumetricWaterContent_DBS-0to1cm_RLatLon0.09_PT028H.grib2 2026-05-03 02:48 339K
20260503T00Z_MSC_RDPS_SpecificHumidity_AGL-120m_RLatLon0.09_PT028H.grib2 2026-05-03 02:48 480K
20260503T00Z_MSC_RDPS_SpecificHumidity_AGL-2m_RLatLon0.09_PT028H.grib2 2026-05-03 02:48 649K
20260503T00Z_MSC_RDPS_SpecificHumidity_AGL-40m_RLatLon0.09_PT028H.grib2 2026-05-03 02:48 488K
20260503T00Z_MSC_RDPS_SpecificHumidity_AGL-80m_RLatLon0.09_PT028H.grib2 2026-05-03 02:48 482K
20260503T00Z_MSC_RDPS_SpecificHumidity_IsbL-0001_RLatLon0.09_PT028H.grib2 2026-05-03 02:48 356K
20260503T00Z_MSC_RDPS_SpecificHumidity_IsbL-0005_RLatLon0.09_PT028H.grib2 2026-05-03 02:48 369K
20260503T00Z_MSC_RDPS_SpecificHumidity_IsbL-0010_RLatLon0.09_PT028H.grib2 2026-05-03 02:48 403K
20260503T00Z_MSC_RDPS_SpecificHumidity_IsbL-0020_RLatLon0.09_PT028H.grib2 2026-05-03 02:48 382K
20260503T00Z_MSC_RDPS_SpecificHumidity_IsbL-0030_RLatLon0.09_PT028H.grib2 2026-05-03 02:48 375K
20260503T00Z_MSC_RDPS_SpecificHumidity_IsbL-0050_RLatLon0.09_PT028H.grib2 2026-05-03 02:48 487K
20260503T00Z_MSC_RDPS_SpecificHumidity_IsbL-0100_RLatLon0.09_PT028H.grib2 2026-05-03 02:48 427K
20260503T00Z_MSC_RDPS_SpecificHumidity_IsbL-0150_RLatLon0.09_PT028H.grib2 2026-05-03 02:48 452K
20260503T00Z_MSC_RDPS_SpecificHumidity_IsbL-0175_RLatLon0.09_PT028H.grib2 2026-05-03 02:48 441K
20260503T00Z_MSC_RDPS_SpecificHumidity_IsbL-0200_RLatLon0.09_PT028H.grib2 2026-05-03 02:48 460K
20260503T00Z_MSC_RDPS_SpecificHumidity_IsbL-0225_RLatLon0.09_PT028H.grib2 2026-05-03 02:48 467K
20260503T00Z_MSC_RDPS_SpecificHumidity_IsbL-0250_RLatLon0.09_PT028H.grib2 2026-05-03 02:48 530K
20260503T00Z_MSC_RDPS_SpecificHumidity_IsbL-0275_RLatLon0.09_PT028H.grib2 2026-05-03 02:48 489K
20260503T00Z_MSC_RDPS_SpecificHumidity_IsbL-0300_RLatLon0.09_PT028H.grib2 2026-05-03 02:48 457K
20260503T00Z_MSC_RDPS_SpecificHumidity_IsbL-0350_RLatLon0.09_PT028H.grib2 2026-05-03 02:48 576K
20260503T00Z_MSC_RDPS_SpecificHumidity_IsbL-0400_RLatLon0.09_PT028H.grib2 2026-05-03 02:48 530K
20260503T00Z_MSC_RDPS_SpecificHumidity_IsbL-0450_RLatLon0.09_PT028H.grib2 2026-05-03 02:48 462K
20260503T00Z_MSC_RDPS_SpecificHumidity_IsbL-0500_RLatLon0.09_PT028H.grib2 2026-05-03 02:48 513K
20260503T00Z_MSC_RDPS_SpecificHumidity_IsbL-0550_RLatLon0.09_PT028H.grib2 2026-05-03 02:48 585K
20260503T00Z_MSC_RDPS_SpecificHumidity_IsbL-0600_RLatLon0.09_PT028H.grib2 2026-05-03 02:48 634K
20260503T00Z_MSC_RDPS_SpecificHumidity_IsbL-0650_RLatLon0.09_PT028H.grib2 2026-05-03 02:48 549K
20260503T00Z_MSC_RDPS_SpecificHumidity_IsbL-0700_RLatLon0.09_PT028H.grib2 2026-05-03 02:48 589K
20260503T00Z_MSC_RDPS_SpecificHumidity_IsbL-0750_RLatLon0.09_PT028H.grib2 2026-05-03 02:48 644K
20260503T00Z_MSC_RDPS_SpecificHumidity_IsbL-0800_RLatLon0.09_PT028H.grib2 2026-05-03 02:48 729K
20260503T00Z_MSC_RDPS_SpecificHumidity_IsbL-0850_RLatLon0.09_PT028H.grib2 2026-05-03 02:48 803K
20260503T00Z_MSC_RDPS_SpecificHumidity_IsbL-0875_RLatLon0.09_PT028H.grib2 2026-05-03 02:48 827K
20260503T00Z_MSC_RDPS_SpecificHumidity_IsbL-0900_RLatLon0.09_PT028H.grib2 2026-05-03 02:48 836K
20260503T00Z_MSC_RDPS_SpecificHumidity_IsbL-0925_RLatLon0.09_PT028H.grib2 2026-05-03 02:48 836K
20260503T00Z_MSC_RDPS_SpecificHumidity_IsbL-0950_RLatLon0.09_PT028H.grib2 2026-05-03 02:48 696K
20260503T00Z_MSC_RDPS_SpecificHumidity_IsbL-0970_RLatLon0.09_PT028H.grib2 2026-05-03 02:48 686K
20260503T00Z_MSC_RDPS_SpecificHumidity_IsbL-0985_RLatLon0.09_PT028H.grib2 2026-05-03 02:48 678K
20260503T00Z_MSC_RDPS_SpecificHumidity_IsbL-1000_RLatLon0.09_PT028H.grib2 2026-05-03 02:48 672K
20260503T00Z_MSC_RDPS_SpecificHumidity_IsbL-1015_RLatLon0.09_PT028H.grib2 2026-05-03 02:48 662K
20260503T00Z_MSC_RDPS_SpecificHumidity_Sfc_RLatLon0.09_PT028H.grib2 2026-05-03 02:48 298K
20260503T00Z_MSC_RDPS_StormRelativeHelicity_EtaL-10000_RLatLon0.09_PT028H.grib2 2026-05-03 02:48 1.1M
20260503T00Z_MSC_RDPS_StormSeverityIndex_EtaL-10000_RLatLon0.09_PT028H.grib2 2026-05-03 02:48 1.2M
20260503T00Z_MSC_RDPS_Thickness_IsbL-0850to0700_RLatLon0.09_PT028H.grib2 2026-05-03 02:48 176K
20260503T00Z_MSC_RDPS_Thickness_IsbL-1000to0500_RLatLon0.09_PT028H.grib2 2026-05-03 02:48 194K
20260503T00Z_MSC_RDPS_Thickness_IsbL-1000to0850_RLatLon0.09_PT028H.grib2 2026-05-03 02:48 259K
20260503T00Z_MSC_RDPS_TotalCloudCover_Sfc_RLatLon0.09_PT028H.grib2 2026-05-03 02:48 662K
20260503T00Z_MSC_RDPS_TotalTotalsIndex_Sfc_RLatLon0.09_PT028H.grib2 2026-05-03 02:48 2.4M
20260503T00Z_MSC_RDPS_UVIndex-ClearSky_Sfc_RLatLon0.09_PT028H.grib2 2026-05-03 02:48 85K
20260503T00Z_MSC_RDPS_UVIndex_Sfc_RLatLon0.09_PT028H.grib2 2026-05-03 02:48 205K
20260503T00Z_MSC_RDPS_UpwardLongwaveRadiationFlux_NTAtm_RLatLon0.09_PT028H.grib2 2026-05-03 02:48 491K
20260503T00Z_MSC_RDPS_UpwardShortwaveRadiationFlux_NTAtm_RLatLon0.09_PT028H.grib2 2026-05-03 02:48 166K
20260503T00Z_MSC_RDPS_VerticalVelocity_IsbL-0250_RLatLon0.09_PT028H.grib2 2026-05-03 02:48 437K
20260503T00Z_MSC_RDPS_VerticalVelocity_IsbL-0500_RLatLon0.09_PT028H.grib2 2026-05-03 02:48 547K
20260503T00Z_MSC_RDPS_VerticalVelocity_IsbL-0700_RLatLon0.09_PT028H.grib2 2026-05-03 02:48 595K
20260503T00Z_MSC_RDPS_VerticalVelocity_IsbL-0850_RLatLon0.09_PT028H.grib2 2026-05-03 02:48 699K
20260503T00Z_MSC_RDPS_VerticalWindShear_EtaL-6500_RLatLon0.09_PT028H.grib2 2026-05-03 02:48 1.2M
20260503T00Z_MSC_RDPS_WindChill_Sfc_RLatLon0.09_PT028H.grib2 2026-05-03 02:48 1.1M
20260503T00Z_MSC_RDPS_WindDir_AGL-10m_RLatLon0.09_PT028H.grib2 2026-05-03 02:48 964K
20260503T00Z_MSC_RDPS_WindDir_AGL-120m_RLatLon0.09_PT028H.grib2 2026-05-03 02:48 598K
20260503T00Z_MSC_RDPS_WindDir_AGL-40m_RLatLon0.09_PT028H.grib2 2026-05-03 02:48 632K
20260503T00Z_MSC_RDPS_WindDir_AGL-80m_RLatLon0.09_PT028H.grib2 2026-05-03 02:48 610K
20260503T00Z_MSC_RDPS_WindDir_IsbL-0001_RLatLon0.09_PT028H.grib2 2026-05-03 02:48 312K
20260503T00Z_MSC_RDPS_WindDir_IsbL-0005_RLatLon0.09_PT028H.grib2 2026-05-03 02:48 372K
20260503T00Z_MSC_RDPS_WindDir_IsbL-0010_RLatLon0.09_PT028H.grib2 2026-05-03 02:48 397K
20260503T00Z_MSC_RDPS_WindDir_IsbL-0020_RLatLon0.09_PT028H.grib2 2026-05-03 02:48 427K
20260503T00Z_MSC_RDPS_WindDir_IsbL-0030_RLatLon0.09_PT028H.grib2 2026-05-03 02:48 416K
20260503T00Z_MSC_RDPS_WindDir_IsbL-0050_RLatLon0.09_PT028H.grib2 2026-05-03 02:48 411K
20260503T00Z_MSC_RDPS_WindDir_IsbL-0100_RLatLon0.09_PT028H.grib2 2026-05-03 02:48 411K
20260503T00Z_MSC_RDPS_WindDir_IsbL-0150_RLatLon0.09_PT028H.grib2 2026-05-03 02:48 415K
20260503T00Z_MSC_RDPS_WindDir_IsbL-0175_RLatLon0.09_PT028H.grib2 2026-05-03 02:48 435K
20260503T00Z_MSC_RDPS_WindDir_IsbL-0200_RLatLon0.09_PT028H.grib2 2026-05-03 02:48 450K
20260503T00Z_MSC_RDPS_WindDir_IsbL-0225_RLatLon0.09_PT028H.grib2 2026-05-03 02:48 461K
20260503T00Z_MSC_RDPS_WindDir_IsbL-0250_RLatLon0.09_PT028H.grib2 2026-05-03 02:48 465K
20260503T00Z_MSC_RDPS_WindDir_IsbL-0275_RLatLon0.09_PT028H.grib2 2026-05-03 02:48 479K
20260503T00Z_MSC_RDPS_WindDir_IsbL-0300_RLatLon0.09_PT028H.grib2 2026-05-03 02:48 473K
20260503T00Z_MSC_RDPS_WindDir_IsbL-0350_RLatLon0.09_PT028H.grib2 2026-05-03 02:48 497K
20260503T00Z_MSC_RDPS_WindDir_IsbL-0400_RLatLon0.09_PT028H.grib2 2026-05-03 02:48 521K
20260503T00Z_MSC_RDPS_WindDir_IsbL-0450_RLatLon0.09_PT028H.grib2 2026-05-03 02:48 529K
20260503T00Z_MSC_RDPS_WindDir_IsbL-0500_RLatLon0.09_PT028H.grib2 2026-05-03 02:48 535K
20260503T00Z_MSC_RDPS_WindDir_IsbL-0550_RLatLon0.09_PT028H.grib2 2026-05-03 02:48 548K
20260503T00Z_MSC_RDPS_WindDir_IsbL-0600_RLatLon0.09_PT028H.grib2 2026-05-03 02:48 574K
20260503T00Z_MSC_RDPS_WindDir_IsbL-0650_RLatLon0.09_PT028H.grib2 2026-05-03 02:48 610K
20260503T00Z_MSC_RDPS_WindDir_IsbL-0700_RLatLon0.09_PT028H.grib2 2026-05-03 02:48 647K
20260503T00Z_MSC_RDPS_WindDir_IsbL-0750_RLatLon0.09_PT028H.grib2 2026-05-03 02:48 693K
20260503T00Z_MSC_RDPS_WindDir_IsbL-0800_RLatLon0.09_PT028H.grib2 2026-05-03 02:48 765K
20260503T00Z_MSC_RDPS_WindDir_IsbL-0850_RLatLon0.09_PT028H.grib2 2026-05-03 02:48 853K
20260503T00Z_MSC_RDPS_WindDir_IsbL-0875_RLatLon0.09_PT028H.grib2 2026-05-03 02:48 882K
20260503T00Z_MSC_RDPS_WindDir_IsbL-0900_RLatLon0.09_PT028H.grib2 2026-05-03 02:48 898K
20260503T00Z_MSC_RDPS_WindDir_IsbL-0925_RLatLon0.09_PT028H.grib2 2026-05-03 02:48 908K
20260503T00Z_MSC_RDPS_WindDir_IsbL-0950_RLatLon0.09_PT028H.grib2 2026-05-03 02:48 908K
20260503T00Z_MSC_RDPS_WindDir_IsbL-0970_RLatLon0.09_PT028H.grib2 2026-05-03 02:48 914K
20260503T00Z_MSC_RDPS_WindDir_IsbL-0985_RLatLon0.09_PT028H.grib2 2026-05-03 02:48 924K
20260503T00Z_MSC_RDPS_WindDir_IsbL-1000_RLatLon0.09_PT028H.grib2 2026-05-03 02:48 939K
20260503T00Z_MSC_RDPS_WindDir_IsbL-1015_RLatLon0.09_PT028H.grib2 2026-05-03 02:48 955K
20260503T00Z_MSC_RDPS_WindGust-Max_AGL-10m_RLatLon0.09_PT028H.grib2 2026-05-03 02:48 1.0M
20260503T00Z_MSC_RDPS_WindGust-Min_AGL-10m_RLatLon0.09_PT028H.grib2 2026-05-03 02:48 963K
20260503T00Z_MSC_RDPS_WindGust_AGL-10m_RLatLon0.09_PT028H.grib2 2026-05-03 02:48 1.0M
20260503T00Z_MSC_RDPS_WindSpeed_AGL-10m_RLatLon0.09_PT028H.grib2 2026-05-03 02:48 832K
20260503T00Z_MSC_RDPS_WindSpeed_AGL-120m_RLatLon0.09_PT028H.grib2 2026-05-03 02:48 544K
20260503T00Z_MSC_RDPS_WindSpeed_AGL-40m_RLatLon0.09_PT028H.grib2 2026-05-03 02:48 537K
20260503T00Z_MSC_RDPS_WindSpeed_AGL-80m_RLatLon0.09_PT028H.grib2 2026-05-03 02:48 546K
20260503T00Z_MSC_RDPS_WindSpeed_IsbL-0001_RLatLon0.09_PT028H.grib2 2026-05-03 02:48 334K
20260503T00Z_MSC_RDPS_WindSpeed_IsbL-0005_RLatLon0.09_PT028H.grib2 2026-05-03 02:48 380K
20260503T00Z_MSC_RDPS_WindSpeed_IsbL-0010_RLatLon0.09_PT028H.grib2 2026-05-03 02:48 363K
20260503T00Z_MSC_RDPS_WindSpeed_IsbL-0020_RLatLon0.09_PT028H.grib2 2026-05-03 02:48 321K
20260503T00Z_MSC_RDPS_WindSpeed_IsbL-0030_RLatLon0.09_PT028H.grib2 2026-05-03 02:48 322K
20260503T00Z_MSC_RDPS_WindSpeed_IsbL-0050_RLatLon0.09_PT028H.grib2 2026-05-03 02:48 354K
20260503T00Z_MSC_RDPS_WindSpeed_IsbL-0100_RLatLon0.09_PT028H.grib2 2026-05-03 02:48 482K
20260503T00Z_MSC_RDPS_WindSpeed_IsbL-0150_RLatLon0.09_PT028H.grib2 2026-05-03 02:48 387K
20260503T00Z_MSC_RDPS_WindSpeed_IsbL-0175_RLatLon0.09_PT028H.grib2 2026-05-03 02:48 432K
20260503T00Z_MSC_RDPS_WindSpeed_IsbL-0200_RLatLon0.09_PT028H.grib2 2026-05-03 02:48 447K
20260503T00Z_MSC_RDPS_WindSpeed_IsbL-0225_RLatLon0.09_PT028H.grib2 2026-05-03 02:48 456K
20260503T00Z_MSC_RDPS_WindSpeed_IsbL-0250_RLatLon0.09_PT028H.grib2 2026-05-03 02:48 460K
20260503T00Z_MSC_RDPS_WindSpeed_IsbL-0275_RLatLon0.09_PT028H.grib2 2026-05-03 02:48 477K
20260503T00Z_MSC_RDPS_WindSpeed_IsbL-0300_RLatLon0.09_PT028H.grib2 2026-05-03 02:48 471K
20260503T00Z_MSC_RDPS_WindSpeed_IsbL-0350_RLatLon0.09_PT028H.grib2 2026-05-03 02:48 480K
20260503T00Z_MSC_RDPS_WindSpeed_IsbL-0400_RLatLon0.09_PT028H.grib2 2026-05-03 02:48 485K
20260503T00Z_MSC_RDPS_WindSpeed_IsbL-0450_RLatLon0.09_PT028H.grib2 2026-05-03 02:48 470K
20260503T00Z_MSC_RDPS_WindSpeed_IsbL-0500_RLatLon0.09_PT028H.grib2 2026-05-03 02:48 469K
20260503T00Z_MSC_RDPS_WindSpeed_IsbL-0550_RLatLon0.09_PT028H.grib2 2026-05-03 02:48 469K
20260503T00Z_MSC_RDPS_WindSpeed_IsbL-0600_RLatLon0.09_PT028H.grib2 2026-05-03 02:48 594K
20260503T00Z_MSC_RDPS_WindSpeed_IsbL-0650_RLatLon0.09_PT028H.grib2 2026-05-03 02:48 613K
20260503T00Z_MSC_RDPS_WindSpeed_IsbL-0700_RLatLon0.09_PT028H.grib2 2026-05-03 02:48 635K
20260503T00Z_MSC_RDPS_WindSpeed_IsbL-0750_RLatLon0.09_PT028H.grib2 2026-05-03 02:48 708K
20260503T00Z_MSC_RDPS_WindSpeed_IsbL-0800_RLatLon0.09_PT028H.grib2 2026-05-03 02:48 758K
20260503T00Z_MSC_RDPS_WindSpeed_IsbL-0850_RLatLon0.09_PT028H.grib2 2026-05-03 02:48 819K
20260503T00Z_MSC_RDPS_WindSpeed_IsbL-0875_RLatLon0.09_PT028H.grib2 2026-05-03 02:48 841K
20260503T00Z_MSC_RDPS_WindSpeed_IsbL-0900_RLatLon0.09_PT028H.grib2 2026-05-03 02:48 852K
20260503T00Z_MSC_RDPS_WindSpeed_IsbL-0925_RLatLon0.09_PT028H.grib2 2026-05-03 02:48 862K
20260503T00Z_MSC_RDPS_WindSpeed_IsbL-0950_RLatLon0.09_PT028H.grib2 2026-05-03 02:48 861K
20260503T00Z_MSC_RDPS_WindSpeed_IsbL-0970_RLatLon0.09_PT028H.grib2 2026-05-03 02:48 861K
20260503T00Z_MSC_RDPS_WindSpeed_IsbL-0985_RLatLon0.09_PT028H.grib2 2026-05-03 02:48 856K
20260503T00Z_MSC_RDPS_WindSpeed_IsbL-1000_RLatLon0.09_PT028H.grib2 2026-05-03 02:48 844K
20260503T00Z_MSC_RDPS_WindSpeed_IsbL-1015_RLatLon0.09_PT028H.grib2 2026-05-03 02:48 833K
20260503T00Z_MSC_RDPS_WindU_AGL-10m_RLatLon0.09_PT028H.grib2 2026-05-03 02:48 426K
20260503T00Z_MSC_RDPS_WindU_AGL-120m_RLatLon0.09_PT028H.grib2 2026-05-03 02:48 414K
20260503T00Z_MSC_RDPS_WindU_AGL-40m_RLatLon0.09_PT028H.grib2 2026-05-03 02:48 416K
20260503T00Z_MSC_RDPS_WindU_AGL-80m_RLatLon0.09_PT028H.grib2 2026-05-03 02:48 416K
20260503T00Z_MSC_RDPS_WindU_IsbL-0001_RLatLon0.09_PT028H.grib2 2026-05-03 02:48 244K
20260503T00Z_MSC_RDPS_WindU_IsbL-0005_RLatLon0.09_PT028H.grib2 2026-05-03 02:48 282K
20260503T00Z_MSC_RDPS_WindU_IsbL-0010_RLatLon0.09_PT028H.grib2 2026-05-03 02:48 296K
20260503T00Z_MSC_RDPS_WindU_IsbL-0020_RLatLon0.09_PT028H.grib2 2026-05-03 02:48 353K
20260503T00Z_MSC_RDPS_WindU_IsbL-0030_RLatLon0.09_PT028H.grib2 2026-05-03 02:48 354K
20260503T00Z_MSC_RDPS_WindU_IsbL-0050_RLatLon0.09_PT028H.grib2 2026-05-03 02:48 381K
20260503T00Z_MSC_RDPS_WindU_IsbL-0100_RLatLon0.09_PT028H.grib2 2026-05-03 02:48 435K
20260503T00Z_MSC_RDPS_WindU_IsbL-0150_RLatLon0.09_PT028H.grib2 2026-05-03 02:48 401K
20260503T00Z_MSC_RDPS_WindU_IsbL-0175_RLatLon0.09_PT028H.grib2 2026-05-03 02:48 328K
20260503T00Z_MSC_RDPS_WindU_IsbL-0200_RLatLon0.09_PT028H.grib2 2026-05-03 02:48 340K
20260503T00Z_MSC_RDPS_WindU_IsbL-0225_RLatLon0.09_PT028H.grib2 2026-05-03 02:48 347K
20260503T00Z_MSC_RDPS_WindU_IsbL-0250_RLatLon0.09_PT028H.grib2 2026-05-03 02:48 349K
20260503T00Z_MSC_RDPS_WindU_IsbL-0275_RLatLon0.09_PT028H.grib2 2026-05-03 02:48 363K
20260503T00Z_MSC_RDPS_WindU_IsbL-0300_RLatLon0.09_PT028H.grib2 2026-05-03 02:48 457K
20260503T00Z_MSC_RDPS_WindU_IsbL-0350_RLatLon0.09_PT028H.grib2 2026-05-03 02:48 467K
20260503T00Z_MSC_RDPS_WindU_IsbL-0400_RLatLon0.09_PT028H.grib2 2026-05-03 02:48 472K
20260503T00Z_MSC_RDPS_WindU_IsbL-0450_RLatLon0.09_PT028H.grib2 2026-05-03 02:48 475K
20260503T00Z_MSC_RDPS_WindU_IsbL-0500_RLatLon0.09_PT028H.grib2 2026-05-03 02:48 475K
20260503T00Z_MSC_RDPS_WindU_IsbL-0550_RLatLon0.09_PT028H.grib2 2026-05-03 02:48 458K
20260503T00Z_MSC_RDPS_WindU_IsbL-0600_RLatLon0.09_PT028H.grib2 2026-05-03 02:48 466K
20260503T00Z_MSC_RDPS_WindU_IsbL-0650_RLatLon0.09_PT028H.grib2 2026-05-03 02:48 483K
20260503T00Z_MSC_RDPS_WindU_IsbL-0700_RLatLon0.09_PT028H.grib2 2026-05-03 02:48 504K
20260503T00Z_MSC_RDPS_WindU_IsbL-0750_RLatLon0.09_PT028H.grib2 2026-05-03 02:48 543K
20260503T00Z_MSC_RDPS_WindU_IsbL-0800_RLatLon0.09_PT028H.grib2 2026-05-03 02:48 584K
20260503T00Z_MSC_RDPS_WindU_IsbL-0850_RLatLon0.09_PT028H.grib2 2026-05-03 02:48 635K
20260503T00Z_MSC_RDPS_WindU_IsbL-0875_RLatLon0.09_PT028H.grib2 2026-05-03 02:48 652K
20260503T00Z_MSC_RDPS_WindU_IsbL-0900_RLatLon0.09_PT028H.grib2 2026-05-03 02:48 659K
20260503T00Z_MSC_RDPS_WindU_IsbL-0925_RLatLon0.09_PT028H.grib2 2026-05-03 02:48 665K
20260503T00Z_MSC_RDPS_WindU_IsbL-0950_RLatLon0.09_PT028H.grib2 2026-05-03 02:48 661K
20260503T00Z_MSC_RDPS_WindU_IsbL-0970_RLatLon0.09_PT028H.grib2 2026-05-03 02:48 652K
20260503T00Z_MSC_RDPS_WindU_IsbL-0985_RLatLon0.09_PT028H.grib2 2026-05-03 02:48 647K
20260503T00Z_MSC_RDPS_WindU_IsbL-1000_RLatLon0.09_PT028H.grib2 2026-05-03 02:48 779K
20260503T00Z_MSC_RDPS_WindU_IsbL-1015_RLatLon0.09_PT028H.grib2 2026-05-03 02:48 771K
20260503T00Z_MSC_RDPS_WindV_AGL-10m_RLatLon0.09_PT028H.grib2 2026-05-03 02:48 428K
20260503T00Z_MSC_RDPS_WindV_AGL-120m_RLatLon0.09_PT028H.grib2 2026-05-03 02:48 415K
20260503T00Z_MSC_RDPS_WindV_AGL-40m_RLatLon0.09_PT028H.grib2 2026-05-03 02:48 534K
20260503T00Z_MSC_RDPS_WindV_AGL-80m_RLatLon0.09_PT028H.grib2 2026-05-03 02:48 416K
20260503T00Z_MSC_RDPS_WindV_IsbL-0001_RLatLon0.09_PT028H.grib2 2026-05-03 02:48 246K
20260503T00Z_MSC_RDPS_WindV_IsbL-0005_RLatLon0.09_PT028H.grib2 2026-05-03 02:48 285K
20260503T00Z_MSC_RDPS_WindV_IsbL-0010_RLatLon0.09_PT028H.grib2 2026-05-03 02:48 298K
20260503T00Z_MSC_RDPS_WindV_IsbL-0020_RLatLon0.09_PT028H.grib2 2026-05-03 02:48 316K
20260503T00Z_MSC_RDPS_WindV_IsbL-0030_RLatLon0.09_PT028H.grib2 2026-05-03 02:48 317K
20260503T00Z_MSC_RDPS_WindV_IsbL-0050_RLatLon0.09_PT028H.grib2 2026-05-03 02:48 345K
20260503T00Z_MSC_RDPS_WindV_IsbL-0100_RLatLon0.09_PT028H.grib2 2026-05-03 02:48 338K
20260503T00Z_MSC_RDPS_WindV_IsbL-0150_RLatLon0.09_PT028H.grib2 2026-05-03 02:48 402K
20260503T00Z_MSC_RDPS_WindV_IsbL-0175_RLatLon0.09_PT028H.grib2 2026-05-03 02:48 329K
20260503T00Z_MSC_RDPS_WindV_IsbL-0200_RLatLon0.09_PT028H.grib2 2026-05-03 02:48 341K
20260503T00Z_MSC_RDPS_WindV_IsbL-0225_RLatLon0.09_PT028H.grib2 2026-05-03 02:48 372K
20260503T00Z_MSC_RDPS_WindV_IsbL-0250_RLatLon0.09_PT028H.grib2 2026-05-03 02:48 374K
20260503T00Z_MSC_RDPS_WindV_IsbL-0275_RLatLon0.09_PT028H.grib2 2026-05-03 02:48 387K
20260503T00Z_MSC_RDPS_WindV_IsbL-0300_RLatLon0.09_PT028H.grib2 2026-05-03 02:48 381K
20260503T00Z_MSC_RDPS_WindV_IsbL-0350_RLatLon0.09_PT028H.grib2 2026-05-03 02:48 387K
20260503T00Z_MSC_RDPS_WindV_IsbL-0400_RLatLon0.09_PT028H.grib2 2026-05-03 02:48 366K
20260503T00Z_MSC_RDPS_WindV_IsbL-0450_RLatLon0.09_PT028H.grib2 2026-05-03 02:48 369K
20260503T00Z_MSC_RDPS_WindV_IsbL-0500_RLatLon0.09_PT028H.grib2 2026-05-03 02:48 370K
20260503T00Z_MSC_RDPS_WindV_IsbL-0550_RLatLon0.09_PT028H.grib2 2026-05-03 02:48 474K
20260503T00Z_MSC_RDPS_WindV_IsbL-0600_RLatLon0.09_PT028H.grib2 2026-05-03 02:48 481K
20260503T00Z_MSC_RDPS_WindV_IsbL-0650_RLatLon0.09_PT028H.grib2 2026-05-03 02:48 496K
20260503T00Z_MSC_RDPS_WindV_IsbL-0700_RLatLon0.09_PT028H.grib2 2026-05-03 02:48 516K
20260503T00Z_MSC_RDPS_WindV_IsbL-0750_RLatLon0.09_PT028H.grib2 2026-05-03 02:48 540K
20260503T00Z_MSC_RDPS_WindV_IsbL-0800_RLatLon0.09_PT028H.grib2 2026-05-03 02:48 582K
20260503T00Z_MSC_RDPS_WindV_IsbL-0850_RLatLon0.09_PT028H.grib2 2026-05-03 02:48 631K
20260503T00Z_MSC_RDPS_WindV_IsbL-0875_RLatLon0.09_PT028H.grib2 2026-05-03 02:48 650K
20260503T00Z_MSC_RDPS_WindV_IsbL-0900_RLatLon0.09_PT028H.grib2 2026-05-03 02:48 658K
20260503T00Z_MSC_RDPS_WindV_IsbL-0925_RLatLon0.09_PT028H.grib2 2026-05-03 02:48 657K
20260503T00Z_MSC_RDPS_WindV_IsbL-0950_RLatLon0.09_PT028H.grib2 2026-05-03 02:48 654K
20260503T00Z_MSC_RDPS_WindV_IsbL-0970_RLatLon0.09_PT028H.grib2 2026-05-03 02:48 652K
20260503T00Z_MSC_RDPS_WindV_IsbL-0985_RLatLon0.09_PT028H.grib2 2026-05-03 02:48 649K
20260503T00Z_MSC_RDPS_WindV_IsbL-1000_RLatLon0.09_PT028H.grib2 2026-05-03 02:48 781K
20260503T00Z_MSC_RDPS_WindV_IsbL-1015_RLatLon0.09_PT028H.grib2 2026-05-03 02:48 773K